This is the latest recevied weather packets stored in our database for station/object LU1MQF-13. If no packets are shown the sender has not sent any weather packets the latest 1 day(s).
| Time | Temp. | Humidity | Pressure | Rain* | Wind** | Luminosity | Snow |
|---|---|---|---|---|---|---|---|
| 1778092031 | 23.89° C | 30% | 928.5 hPa | - | - | - | - |
| 1778090231 | 23.89° C | 42% | 928.3 hPa | - | - | - | - |
| 1778088431 | 23.89° C | 43% | 928.4 hPa | - | - | - | - |
| 1778086631 | 23.89° C | 42% | 928 hPa | - | - | - | - |
| 1778081231 | 21.11° C | 48% | 929.1 hPa | - | - | - | - |
| 1778080331 | 21.11° C | 48% | 929.8 hPa | - | - | - | - |
| 1778075831 | 18.89° C | 52% | 930.7 hPa | - | - | - | - |
| 1778074930 | 18.89° C | 52% | 930.7 hPa | - | - | - | - |
| 1778074031 | 18.89° C | 52% | 930.6 hPa | - | - | - | - |
| 1778072231 | 18.89° C | 53% | 930.7 hPa | - | - | - | - |
| 1778071331 | 17.78° C | 54% | 931.1 hPa | - | - | - | - |
| 1778069531 | 17.22° C | 54% | 931.2 hPa | - | - | - | - |
| 1778065931 | 16.11° C | 53% | 931.1 hPa | - | - | - | - |
| 1778057830 | 16.11° C | 52% | 931.2 hPa | - | - | - | - |
| 1778053330 | 16.11° C | 52% | 932.5 hPa | - | - | - | - |
| 1778052430 | 16.11° C | 52% | 932.6 hPa | - | - | - | - |
| 1778051530 | 16.11° C | 52% | 932.8 hPa | - | - | - | - |
| 1778050630 | 16.11° C | 52% | 933 hPa | - | - | - | - |
| 1778049730 | 16.11° C | 52% | 933.3 hPa | - | - | - | - |
| 1778047030 | 16.11° C | 53% | 933.4 hPa | - | - | - | - |
| 1778045230 | 16.11° C | 53% | 933.6 hPa | - | - | - | - |
| 1778044330 | 16.11° C | 53% | 933.6 hPa | - | - | - | - |
| 1778043430 | 16.11° C | 53% | 933.8 hPa | - | - | - | - |
| 1778042530 | 16.11° C | 54% | 934 hPa | - | - | - | - |
| 1778039830 | 16.11° C | 54% | 934.4 hPa | - | - | - | - |
* Rain since midnight (hover to see other rain measurements)
** Current wind speed in m/s (hover to see current wind gust speed)